This is the latest recevied weather packets stored in our database for station/object KC7UNY-13. If no packets are shown the sender has not sent any weather packets the latest 1 day(s).
| Time | Temp. | Humidity | Pressure | Rain* | Wind** | Luminosity | Snow |
|---|---|---|---|---|---|---|---|
| 1778103425 | 30° C | 23% | 1014 hPa | 0 mm | - | 635 W/m² | - |
| 1778102210 | 30° C | 24% | 1014.4 hPa | 0 mm | - | 679 W/m² | - |
| 1778101300 | 28.33° C | 24% | 1014.3 hPa | 0 mm | - | 712 W/m² | - |
| 1778100692 | 27.78° C | 25% | 1014.6 hPa | 0 mm | - | 727 W/m² | - |
| 1778098573 | 27.78° C | 24% | 1014.9 hPa | 0 mm | - | 778 W/m² | - |
| 1778097966 | 27.22° C | 24% | 1014.9 hPa | 0 mm | - | 787 W/m² | - |
| 1778097359 | 28.33° C | 27% | 1015 hPa | 0 mm | - | 793 W/m² | - |
| 1778095541 | 25.56° C | 27% | 1015.4 hPa | 0 mm | - | 804 W/m² | - |
| 1778093115 | 25.56° C | 28% | 1016.1 hPa | 0 mm | - | 787 W/m² | - |
| 1778092508 | 26.11° C | 28% | 1016 hPa | 0 mm | - | 778 W/m² | - |
| 1778091902 | 25° C | 29% | 1016.3 hPa | 0 mm | - | 772 W/m² | - |
| 1778090690 | 24.44° C | 34% | 1016.5 hPa | 0 mm | - | 743 W/m² | - |
| 1778089780 | 24.44° C | 32% | 1016.4 hPa | 0 mm | - | 718 W/m² | - |
| 1778088872 | 23.89° C | 32% | 1016.5 hPa | 0 mm | - | 692 W/m² | - |
| 1778088569 | 23.33° C | 33% | 1016.5 hPa | 0 mm | - | 680 W/m² | - |
| 1778088266 | 23.33° C | 34% | 1016.3 hPa | 0 mm | - | 669 W/m² | - |
| 1778087054 | 22.78° C | 34% | 1016.3 hPa | 0 mm | - | 622 W/m² | - |
| 1778084925 | 22.78° C | 34% | 1016.3 hPa | 0 mm | - | 523 W/m² | - |
| 1778083715 | 22.22° C | 35% | 1016.5 hPa | 0 mm | - | 457 W/m² | - |
| 1778081679 | 21.67° C | 36% | 1016.3 hPa | 0 mm | - | 349 W/m² | - |
| 1778081073 | 20.56° C | 39% | 1016.3 hPa | 0 mm | - | 317 W/m² | - |
| 1778080772 | 20° C | 39% | 1016.3 hPa | 0 mm | - | 299 W/m² | - |
| 1778079862 | 20.56° C | 39% | 1016.3 hPa | 0 mm | - | 254 W/m² | - |
| 1778078953 | 19.44° C | 42% | 1016.1 hPa | 0 mm | - | 208 W/m² | - |
| 1778078649 | 18.89° C | 41% | 1016 hPa | 0 mm | - | 195 W/m² | - |
* Rain latest hour (hover to see other rain measurements)
** Current wind speed in m/s (hover to see current wind gust speed)